Regional Weather Roundup
Issued by NWS

Home | Current Version | Previous Version | Graphics & Text | Print | Product List | Glossary On
Versions: 1 2 3 4 5 6 7 8 9 10 11 12 13 14 15 16 17 18 19 20 21 22 23 24 25 26 27 28
000
ASUS45 KBOI 240310
RWRID
WEATHER ROUNDUP FOR IDAHO
NATIONAL WEATHER SERVICE BOISE ID
900 PM MDT WED APR 23 2014

NOTE: "FAIR" INDICATES FEW OR NO CLOUDS BELOW 12000 FEET
WITH NO SIGNIFICANT WEATHER AND/OR OBSTRUCTIONS TO VISIBILITY

IDZ012-014-240400-
SOUTHWEST IDAHO


CITY           SKY/WX    TMP DP  RH WIND       PRES   REMARKS
BOISE          CLOUDY    54  31  41 E9        29.95S
CALDWELL       CLOUDY    52  30  43 SE7       29.95S
MOUNTAIN HOME  PTCLDY    51  26  38 E7        29.96S
$$

IDZ016-017-240400-
SOUTHCENTRAL IDAHO


CITY           SKY/WX    TMP DP  RH WIND       PRES   REMARKS
BURLEY         MOCLDY    42  30  62 S5        30.00S
JEROME         PTCLDY    42  26  53 E3        30.00S
TWIN FALLS     MOCLDY    44  31  60 S5        30.00S
$$

IDZ019>023-240400-
SOUTHEAST IDAHO


CITY           SKY/WX    TMP DP  RH WIND       PRES   REMARKS
IDAHO FALLS    PTCLDY    44  22  41 SW20      29.97R
POCATELLO      PTCLDY    43  27  53 S10       30.01S
REXBURG        MOCLDY    43  19  38 SW16G24   29.95R
$$

IDZ006-010-011-018-031-032-240400-
CENTRAL IDAHO MOUNTAINS


CITY           SKY/WX    TMP DP  RH WIND       PRES   REMARKS
MCCALL         CLOUDY    39  28  64 SW5       29.92R
HAILEY         PTCLDY    43  21  42 SW5       30.00R
STANLEY          N/A     32  22  66 S6        29.98R WCI  26
SALMON         MOCLDY    45  21  39 SW7       29.89R
CHALLIS        PTCLDY    41  19  41 SW3       29.94R
$$

IDZ002-004-006-007-026-240400-
NORTHERN IDAHO


CITY           SKY/WX    TMP DP  RH WIND       PRES   REMARKS
LEWISTON       CLOUDY    45  36  70 NE10      29.88F
LOWELL           N/A     43  42  97 CALM      29.97S
COEUR D`ALENE  CLOUDY    39  36  87 SE5       29.85S
MULLAN PASS    CLOUDY    27  25  92 VRB6      29.80R WCI  20
$$



USA.gov is the U.S. government's official web portal to all federal, state and local government web resources and services.